Preview of NWS' New Version of Forecast
This preview is not operational and should not be used for support decisions.

Regional Weather Roundup (RWR)

Issued by National Weather Service (NWS)

                            
000
ASUS45 KABQ 191510
RWRNM 
NEW MEXICO REGIONAL WEATHER ROUNDUP
NATIONAL WEATHER SERVICE ALBUQUERQUE NM
900 AM MDT MON AUG 19 2019

NOTE: "FAIR" MEANS FEW OR NO CLOUDS BELOW 12,000 FEET AGL WITH NO
       SIGNIFICANT WEATHER OR OBSTRUCTIONS TO VISION.

      THIS PRODUCT IS RELEASED AS TWO VERSIONS.  ONE VERSION NEAR
      THE TOP OF THE HOUR CONTAINING PRELIMINARY DATA FROM ALBUQUERQUE
      AND OTHER STATIONS.  A FINAL VERSION WITH ADDITIONAL DATA IS 
      ISSUED ABOUT 10 MINUTES AFTER THE HOUR.
 
NMZ501-503-504-510>518-191600-
NORTHWEST PLATEAU/NORTHCENTRAL MOUNTAINS
  
CITY           SKY/WX    TMP DP  RH WIND       PRES   REMARKS
FARMINGTON     FAIR      68  31  25 SE5       30.21R                  
LOS ALAMOS       N/A     71  28  20 NE5       30.34R                  
SANTA FE       FAIR      72  31  22 N15       30.26R                  
TAOS             N/A     66  33  29 N7        30.36R                  
ANGEL FIRE     FAIR      55  37  50 CALM      30.46S                  

$$
NMZ402-403-502-505>509-191600-
WESTCENTRAL MOUNTAINS/SOUTHWEST MOUNTAINS
  
CITY           SKY/WX    TMP DP  RH WIND       PRES   REMARKS
GALLUP         FAIR      69  29  22 CALM      30.29R                  
GRANTS         FAIR      65  32  29 CALM      30.32S                  
SILVER CITY    FAIR      78  38  24 NW10      30.19S                  

$$
NMZ407-409-411-412-191600-
SOUTHERN DESERTS
  
CITY           SKY/WX    TMP DP  RH WIND       PRES   REMARKS
DEMING         FAIR      74  41  30 SW6       30.11R                  
LAS CRUCES     PTSUNNY   77  36  22 CALM      30.13R                  
HOLLOMAN AFB   PTSUNNY   82  44  26 S8        30.11R                  
ALAMOGORDO     PTSUNNY   82  41  23 SE8       30.10R                  
T OR C         PTSUNNY   81  32  17 N7        30.14R                  

$$
NMZ519>523-191600-
CENTRAL VALLEYS/CENTRAL HIGHLANDS
  
CITY           SKY/WX    TMP DP  RH WIND       PRES   REMARKS
ALBUQUERQUE    PTSUNNY   73  38  27 NW5       30.20R                  
DOUBLE EAGLE   MOSUNNY   75  32  20 CALM      30.22R                  
MORIARTY ARPT  FAIR      73  34  23 CALM      30.27R                  
CLINES CORNERS NOT AVBL                                               
BELEN          FAIR      75  30  18 NE5       30.19S                  
SOCORRO        FAIR      79  32  17 N8        30.15S                  

$$
NMZ524>526-539-540-191600-
SOUTHCENTRAL MOUNTAINS
  
CITY           SKY/WX    TMP DP  RH WIND       PRES   REMARKS
RUIDOSO        CLOUDY    66  46  48 CALM      30.32R                  

$$
NMZ527>531-191600-
NORTHEAST HIGHLANDS/NORTHEAST PLAINS
  
CITY           SKY/WX    TMP DP  RH WIND       PRES   REMARKS
LAS VEGAS      FAIR      73  39  29 N7        30.30R                  
RATON          FAIR      64  51  62 NE6       30.24S                  
CLAYTON        FAIR      82  57  42 W6        30.12S                  

$$
NMZ532>537-191600-
EASTCENTRAL PLAINS
  
CITY           SKY/WX    TMP DP  RH WIND       PRES   REMARKS
TUCUMCARI      FAIR      82  56  40 VRB3      30.06R                  
CANNON AFB     NOT AVBL                                               
CLOVIS AIRPORT FAIR      82  61  48 SW16      30.11R                  

$$
NMZ028-029-538-191600-
SOUTHEAST PLAINS
  
CITY           SKY/WX    TMP DP  RH WIND       PRES   REMARKS
ROSWELL        FAIR      85  56  37 CALM      30.05R                  
ARTESIA        FAIR      82  63  51 S13       30.06R                  
CARLSBAD       FAIR      83  60  45 S9        30.02R                  
HOBBS          CLOUDY    84  61  45 S12       30.06S                  


$$